Dewpoint
30 18 15 17 18 19 16 17 18 23 21 36 37 37 38 38 38 38 38 40 41 37 49 64 64 65 66 64 65 65 64 63 62 64 66 70 71 70 71 71 70 69 70 69
25 19 17 17 18 18 20 16 17 21 34 33 33 36 39 39 38 38 38 39 40 38 45 52 61 63 63 63 63 62 62 62 61 62 63 68 71 71 71 70 70 71 71 71
23 21 21 17 19 17 19 18 19 25 30 37 37 37 39 39 37 38 37 38 39 38 44 49 52 57 58 60 61 61 59 59 59 60 66 68 69 68 67 67 68 69 70 71
19 18 19 16 16 19 17 19 17 21 28 25 34 25 30 38 36 33 34 35 37 38 37 50 55 57 57 59 59 60 61 63 65 66 64 65 65 64 65 65 66 67 66 67
20 16 16 15 17 19 18 18 17 18 25 27 26 28 28 29 36 35 30 29 30 35 43 54 60 62 64 63 61 59 59 59 60 61 62 64 62 62 61 61 61 62 64 65
20 19 18 17 17 19 20 16 23 22 19 21 23 27 27 26 28 34 32 28 27 38 53 60 62 62 60 59 57 57 56 57 57 58 60 59 59 59 59 59 59 59 60 60
20 20 17 17 15 16 15 14 19 16 21 22 26 21 25 28 26 28 28 28 33 53 59 60 60 59 56 55 54 55 54 53 54 55 55 55 55 55 55 55 55 56 57 57
17 13 18 15 14 11 15 17 20 16 19 18 22 20 20 34 41 31 26 29 45 56 58 58 57 55 54 53 53 52 51 51 50 51 50 51 52 52 52 53 53 53 54 55
16 14 16 15 13 11 18 17 20 21 26 20 22 28 32 40 40 43 34 40 50 54 55 55 53 53 52 52 52 51 50 48 48 48 48 48 48 49 49 50 51 51 51 52
20 13 14 14 13 14 17 23 23 29 21 19 26 32 26 39 40 43 39 42 50 50 50 50 51 51 51 51 50 49 49 47 46 47 46 47 48 48 48 48 48 48 48 49
18 22 20 23 13 13 17 21 25 25 23 22 23 28 39 40 41 44 37 43 48 47 47 48 49 50 50 50 49 49 48 46 45 45 46 46 46 46 46 45 45 46 46 46
21 24 21 21 26 20 18 22 25 25 26 31 29 26 45 44 46 47 39 41 42 46 47 47 48 48 48 46 44 44 46 44 44 44 45 46 46 44 44 44 44 45 45 46
28 27 25 22 25 28 28 25 28 32 35 32 27 29 47 48 46 47 44 45 39 43 46 46 48 48 47 45 43 42 43 43 43 43 44 44 44 43 43 43 43 44 46 46
36 33 26 24 25 34 34 34 33 31 31 34 34 36 45 46 46 46 48 49 46 39 43 42 44 45 43 43 42 42 43 43 43 43 43 42 42 42 42 42 44 45 45 44
34 31 35 39 39 37 36 34 32 31 35 30 34 36 43 46 46 48 50 50 42 37 37 38 39 40 41 42 42 43 43 43 43 41 41 41 42 42 42 43 43 42 41 41
39 36 38 37 38 37 34 33 33 34 35 39 39 39 46 49 50 49 50 48 42 39 39 40 40 41 41 43 43 42 41 41 41 42 42 42 41 41 41 40 40 39 39 39
38 36 33 32 38 32 30 33 28 32 32 37 35 38 46 46 46 47 48 48 46 44 39 39 40 40 41 41 42 42 43 43 41 40 40 39 39 39 38 38 37 36 37 37
37 36 34 32 31 26 33 35 34 33 34 37 43 44 42 39 38 38 39 38 40 38 37 38 39 40 41 41 41 41 41 40 39 39 38 37 36 35 35 34 35 35 35 34
38 37 33 29 26 27 30 33 33 31 33 37 38 37 37 37 36 36 38 36 35 37 38 37 37 38 38 37 38 38 37 38 37 36 35 35 35 33 33 32 32 31 31 31
39 37 34 29 25 22 30 36 34 33 30 37 37 36 35 35 33 34 32 32 35 37 37 36 35 35 35 35 35 34 35 35 35 35 34 33 33 32 31 30 30 30 31 32
35 34 31 30 27 33 37 42 41 26 30 38 37 35 35 35 35 33 33 34 34 35 36 35 34 33 34 34 33 32 33 33 35 34 32 31 31 31 29 29 30 31 33 34
33 31 29 32 29 27 41 40 31 36 37 36 35 32 30 30 32 34 33 33 33 32 32 33 33 32 32 34 32 31 31 33 33 32 31 29 28 28 29 29 32 32 30 30
32 33 34 34 34 38 39 38 38 36 35 32 29 29 30 32 33 33 32 32 32 32 32 32 32 31 32 32 31 30 30 29 31 29 27 26 27 29 30 30 30 30 30 31
39 40 35 35 36 35 35 34 33 32 30 29 29 31 32 32 32 32 32 31 31 31 31 31 31 31 30 29 28 29 28 29 28 27 27 28 29 30 30 30 30 30 30 30
38 38 35 35 35 32 31 29 29 30 30 31 32 33 33 32 32 32 31 31 31 30 31 31 30 28 28 26 27 27 28 28 27 27 28 29 29 29 30 30 31 31 31 33
37 35 34 34 34 32 31 30 31 31 32 32 32 32 33 32 32 32 31 31 30 30 29 27 28 28 26 27 28 28 29 29 28 29 29 29 30 30 30 30 31 33 35 35
Lifted_Index
7 6 6 7 8 8 7 6 6 6 5 4 4 3 3 2 3 3 3 3 3 2 1 -2 -3 -3 -3 -3 -3 -2 -0 0 1 1 1 -2 -4 -5 -5 -5 -5 -5 -5 -5
7 6 6 7 8 8 7 6 6 6 5 4 4 3 3 3 3 3 3 3 3 3 1 -1 -2 -3 -3 -3 -3 -2 -1 -0 0 1 0 -1 -3 -4 -5 -5 -5 -5 -5 -5
6 6 7 7 7 7 7 7 6 5 4 3 3 3 3 3 3 3 3 3 3 3 2 1 -1 -1 -2 -2 -2 -2 -2 -1 -1 -0 -0 -1 -3 -4 -4 -5 -5 -4 -4 -5
5 6 7 7 7 7 7 6 6 5 4 3 2 3 3 3 3 3 3 3 3 3 3 2 0 -0 -1 -1 -2 -3 -3 -3 -3 -2 -2 -2 -3 -4 -4 -4 -4 -4 -4 -4
5 6 7 7 7 7 6 6 5 4 4 3 2 3 3 4 4 3 3 2 3 3 3 1 -0 -1 -1 -2 -2 -3 -4 -4 -5 -5 -4 -4 -4 -3 -3 -3 -3 -3 -3 -3
6 6 6 6 6 6 5 4 3 2 2 2 3 3 3 4 3 3 2 2 2 2 1 -1 -2 -2 -2 -2 -3 -3 -4 -5 -5 -5 -4 -4 -3 -3 -2 -2 -2 -2 -2 -2
5 5 6 6 6 5 4 3 1 0 1 2 3 3 3 3 3 2 2 2 2 -0 -2 -3 -3 -3 -2 -2 -2 -2 -2 -2 -2 -2 -2 -2 -2 -2 -1 -0 0 1 1 1
4 4 5 5 5 4 3 1 1 0 1 1 2 2 2 2 2 2 3 3 1 -1 -3 -4 -3 -2 -1 -1 -0 0 1 1 2 2 1 1 0 1 2 3 4 4 4 4
3 4 4 4 3 3 2 1 0 0 0 1 1 1 1 1 1 1 2 2 1 -2 -3 -3 -2 -0 0 0 1 1 2 2 3 4 4 3 4 4 5 6 7 7 7 7
3 3 3 2 2 1 1 1 0 0 0 0 0 1 1 0 0 1 2 2 0 -2 -3 -2 -1 0 0 0 1 1 2 2 3 4 4 5 6 7 7 8 8 8 9 9
3 2 1 1 0 1 1 1 0 -0 -0 -0 0 0 0 -0 0 0 1 0 -1 -2 -2 -2 -1 -0 0 0 1 1 2 3 3 4 5 5 6 6 7 7 7 8 9 9
3 2 1 0 -0 -0 0 0 0 -0 -0 -0 -0 -0 -1 -1 -0 -0 -0 -1 -2 -2 -2 -1 -1 -0 0 1 1 2 2 3 3 4 5 5 6 6 6 6 7 7 9 9
2 2 1 0 -1 -1 -1 -0 -0 -0 -1 -0 -0 -0 -1 -1 -1 -0 -0 -1 -1 -1 -1 -0 -1 -0 0 1 2 2 3 4 4 5 5 5 5 6 6 6 7 8 9 10
2 1 1 -0 -1 -2 -2 -1 -1 -1 -1 -0 -0 -0 -1 -1 -0 0 -0 -0 -0 0 0 -0 -1 -0 0 1 2 3 4 4 5 5 5 5 6 6 7 7 8 9 10 10
1 0 -0 -1 -1 -2 -2 -2 -1 -1 -1 -1 -0 -1 -1 -1 -1 -0 -0 0 1 1 1 0 0 1 1 2 3 3 4 5 5 6 6 6 7 8 8 9 9 10 10 10
-0 -0 -1 -1 -1 -1 -1 -1 -1 -1 -1 -1 -0 -1 -1 -1 -1 -1 -0 -0 0 1 1 1 1 2 2 3 4 4 5 6 6 6 7 7 8 9 9 9 10 10 10 10
-1 -1 -1 -1 -1 -1 -1 -1 -1 -1 -0 -0 -0 -0 -1 -1 -1 -1 -1 -0 0 1 1 2 2 3 3 4 5 5 6 6 7 7 8 8 9 9 10 10 10 10 10 11
-1 -1 -1 -1 -1 -0 -0 -0 -0 -0 -0 0 0 -0 -1 -1 -1 -0 -0 0 1 2 2 3 3 3 4 5 5 6 7 7 8 8 9 9 10 10 10 10 10 11 11 12
-1 -1 -1 -0 -0 0 0 0 0 0 1 1 1 0 0 -0 0 1 1 2 2 2 3 3 3 4 5 6 7 7 8 8 9 9 9 10 11 11 11 11 12 12 12 12
-0 -0 -0 -0 0 0 1 1 1 1 1 1 1 1 1 1 1 2 3 3 3 3 4 4 5 5 6 7 8 8 9 9 9 10 11 12 12 12 13 13 13 13 12 11
0 0 0 0 0 1 1 1 1 1 2 2 1 1 2 2 2 3 4 4 4 4 5 5 6 7 8 9 9 10 10 11 11 12 12 13 14 14 14 13 13 12 10 10
1 0 1 1 1 1 1 1 1 1 2 2 2 2 2 2 3 3 4 5 5 5 6 7 8 9 10 11 11 12 12 13 13 13 13 13 14 14 13 12 11 10 9 9
1 1 1 1 1 1 1 1 1 1 1 2 2 3 3 3 4 4 5 6 7 8 9 10 11 12 13 13 13 13 13 13 13 13 13 13 13 13 12 11 10 10 9 9
1 1 1 1 1 1 2 2 2 2 2 2 3 4 4 5 5 7 8 8 10 11 12 12 13 13 13 13 13 13 13 13 13 12 12 12 12 11 10 10 10 10 11 11
2 1 1 1 1 1 2 2 2 2 3 3 4 5 6 7 8 9 10 11 12 13 13 13 12 12 12 13 13 14 15 14 13 12 11 11 10 10 10 10 10 11 12 12
2 1 1 1 1 1 2 2 3 3 4 5 5 6 8 9 10 11 12 13 13 13 12 12 11 12 12 13 14 15 15 15 13 11 11 10 10 9 9 9 10 12 13 13